[[{"header":{"parameterUnit":"m.s-1","parameterCategory":1,"la1":30.2991,"la2":30.254,"lo1":-89.0895,"lo2":-89.0444,"dy":0.0017,"dx":0.0017,"nx":28,"ny":28,"refTime":"2024-07-20T21:00:00:Z","depth":0,"parameterNumber":2,"parameterNumberName":"U-component_of_WINDS"},"data":[0,0,0,0,0,0,0,0,0,0,0,0,0,0,0,0,0,0,0,0,0,0,0,0,0,0,0,0,0,0,0,0,0,0,0,0,0,0,0,0,0,0,0,0,0,0,0,0,0,0,0,0,0,0,0,0,0,0,2.805,2.8051,0,2.8083,2.8083,2.8084,2.8046,2.8045,2.8043,2.8042,2.8076,2.8078,2.808,0,0,0,0,0,0,0,0,0,0,0,0,0,2.7957,2.7959,2.805,2.8051,2.8051,2.8083,2.8083,2.8084,2.8047,2.8045,2.8043,2.8042,2.8075,2.8078,2.808,0,0,0,0,0,0,0,0,0,0,0,0,0,2.7994,2.7959,2.805,2.8036,2.8036,2.8083,2.8083,2.8084,2.8047,2.8045,2.8043,2.8041,2.8074,2.8077,2.8081,2.8143,0,0,2.8091,2.8092,0,0,0,0,0,0,0,0,2.7992,2.7998,2.8038,2.8038,2.8037,2.8058,2.8063,2.8104,2.8047,2.8043,2.8042,2.804,2.8072,2.8075,2.8086,2.8145,2.8146,2.8091,2.8093,2.8095,2.8095,0,0,0,0,0,0,0,2.799,2.7996,2.8063,2.8039,2.8038,2.8029,2.8032,2.807,2.8069,2.8043,2.804,2.8045,2.8071,2.8083,2.8086,2.8147,2.8091,2.8094,2.8096,2.8097,2.8259,2.8261,0,0,0,0,0,0,2.7989,2.7994,2.8062,2.8064,2.8009,2.8032,2.8036,2.8054,2.8068,2.8068,2.8046,2.8043,2.8078,2.8083,2.8087,2.8161,2.8094,2.8098,2.8099,2.8257,2.826,2.8262,0,0,0,0,0,0,2.7987,2.7995,2.8061,2.8029,2.8036,2.8036,2.8057,2.8055,2.8067,2.8071,2.807,2.8059,2.8077,2.8083,2.813,2.8162,2.8099,2.8102,2.8254,2.8258,2.8261,2.831,0,0,0,0,0,0,2.7984,2.7995,2.8018,2.8029,2.8038,2.8103,2.8059,2.8057,2.8073,2.8068,2.8082,2.8082,2.8075,2.8125,2.8133,2.8165,2.8105,2.8251,2.8256,2.826,2.8305,2.8315,2.8323,0,0,0,0,0,2.7981,2.8031,2.8019,2.8028,2.8068,2.8104,2.8109,2.81,2.8076,2.8099,2.8102,2.8082,2.8158,2.813,2.8139,2.8173,2.8249,2.8254,2.8259,2.8302,2.8313,2.8322,0,0,0,0,0,0,2.8023,2.8032,2.8019,2.8074,2.8089,2.8098,2.8127,2.8113,2.8135,2.8129,2.8117,2.8121,2.8171,2.8177,2.8146,2.8234,2.8199,2.8206,2.8228,2.8239,2.8247,2.8245,2.8107,0,0,0,0,0,2.8039,2.8068,2.8074,2.8122,2.813,2.8128,2.8143,2.8135,2.815,2.8156,2.8162,2.8177,2.8204,2.8222,2.8247,2.8307,2.8309,2.8334,2.8343,2.835,2.8356,2.8388,2.8399,2.8279,2.8279,2.8279,0,0,2.8071,2.808,2.8099,2.813,2.8141,2.8171,2.8133,2.8167,2.8189,2.8161,2.8205,2.8211,2.8227,2.828,2.8304,2.8287,2.839,2.8357,2.8362,2.8364,2.8394,2.8406,2.8416,2.8283,2.8282,2.8281,0,0,2.8146,2.8155,2.8196,2.8207,2.8224,2.8222,2.8232,2.8244,2.8246,2.8291,2.827,2.8297,2.8344,2.8356,2.8369,2.8449,2.8432,2.8458,2.8503,2.8534,2.8543,2.8551,2.858,2.859,2.8464,2.8465,2.8465,0,2.8184,2.8229,2.8219,2.8254,2.8269,2.8245,2.8286,2.8298,2.8322,2.8333,2.8313,2.8372,2.8381,2.8437,2.8456,2.8468,2.8478,2.8456,2.8543,2.8551,2.8558,2.8585,2.8596,2.8468,2.8467,2.8467,2.8467,0,2.8275,2.8306,2.8338,2.8361,2.8379,2.8418,2.8414,2.8434,2.8424,2.8425,2.8471,2.8482,2.8508,2.8521,2.8513,2.8576,2.8565,2.8544,2.8509,2.8573,2.8598,2.8608,2.8472,2.8471,2.847,2.8469,0,0,2.8375,2.8394,2.8405,2.8415,2.8432,2.8457,2.8494,2.8521,2.8538,2.8556,2.8586,2.8627,2.8609,2.8623,2.8615,2.8643,2.8706,2.8619,2.8619,2.8634,2.8776,2.8791,2.8803,2.8695,2.8697,2.8698,2.8775,0,2.8449,2.8514,2.8507,2.8568,2.8597,2.8576,2.8609,2.8623,2.8625,2.865,2.8652,2.8681,2.8654,2.8663,2.8689,2.8693,2.8734,2.8687,2.8723,2.8725,2.8719,2.8816,2.8831,2.8903,2.8784,2.8786,2.8787,0,2.8544,2.8565,2.863,2.8643,2.8655,2.8684,2.8708,2.8732,2.8748,2.8748,2.8764,2.8752,2.879,2.8755,2.8807,2.8775,2.879,2.8794,2.8797,2.8799,2.8759,2.882,2.8925,2.8936,2.8803,2.8801,2.88,0,2.861,2.8655,2.8699,2.8709,2.8725,2.8746,2.8754,2.8768,2.8784,2.8806,2.8816,2.8842,2.8855,2.8875,2.8871,2.8846,2.8924,2.8888,2.8925,2.8925,2.8941,2.894,2.9049,2.8952,2.8952,2.8952,2.8952,0,2.8692,2.8733,2.8729,2.8756,2.8801,2.8792,2.8837,2.8842,2.8855,2.8883,2.8866,2.8893,2.8886,2.8912,2.8909,2.8953,2.8959,2.896,2.8958,2.8961,2.8961,2.8969,2.8964,2.8955,2.8954,2.8954,2.8953,0,2.8773,2.8772,2.8819,2.8831,2.8835,2.8867,2.8877,2.8903,2.8904,2.894,2.8948,2.895,2.898,2.8978,2.9013,2.9011,2.9064,2.9057,2.9059,2.9057,2.9093,2.9089,2.9211,2.9226,2.912,2.9121,2.9122,0,2.8825,2.8855,2.8871,2.8888,2.8898,2.8926,2.8943,2.8937,2.8955,2.8976,2.9,2.9029,2.9051,2.9101,2.9106,2.9132,2.9125,2.9166,2.9129,2.913,2.9125,2.9122,2.9125,2.9173,2.9174,2.9175,2.9176,0,2.8917,2.8916,2.8941,2.8966,2.8987,2.9006,2.9024,2.9039,2.9035,2.9056,2.9087,2.9105,2.9141,2.917,2.9195,2.9203,2.9189,2.9188,2.9197,2.9199,2.9199,2.9199,2.9077,2.9185,2.9184,2.9183,2.9183,2.9182,2.8985,2.9011,2.9026,2.9054,2.9067,2.9084,2.9109,2.9114,2.914,2.9168,2.9163,2.9198,2.9214,2.9246,2.9257,2.9284,2.9269,2.9284,2.9287,2.929,2.9294,2.9195,2.9289,2.9289,2.9288,2.9288,2.9288,0,2.9075,2.9085,2.9111,2.9136,2.9159,2.9145,2.9164,2.9183,2.9214,2.923,2.9253,2.9289,2.9317,2.9325,2.9352,2.9373,2.9367,2.938,2.9378,2.938,2.9306,2.9294,2.9384,2.9384,2.9384,2.9384,2.9384,2.9384,2.9125,2.9169,2.9169,2.9219,2.9228,2.9261,2.9274,2.929,2.9302,2.9343,2.9367,2.9371,2.9384,2.9412,2.9438,2.9439,2.945,2.9465,2.9464,2.9395,2.9385,2.9376,2.9365,2.9468,2.9468,2.9535,2.9536,2.9537]},{"header":{"parameterUnit":"m.s-1","parameterCategory":1,"la1":30.2991,"la2":30.254,"lo1":-89.0895,"lo2":-89.0444,"dy":0.0017,"dx":0.0017,"nx":28,"ny":28,"refTime":"2024-07-20T21:00:00:Z","depth":0,"parameterNumber":3,"parameterNumberName":"V-component_of_WINDS"},"data":[0,0,0,0,0,0,0,0,0,0,0,0,0,0,0,0,0,0,0,0,0,0,0,0,0,0,0,0,0,0,0,0,0,0,0,0,0,0,0,0,0,0,0,0,0,0,0,0,0,0,0,0,0,0,0,0,0,0,3.7521,3.7521,0,3.7536,3.7537,3.7537,3.7544,3.7544,3.7544,3.7544,3.7558,3.7559,3.7559,0,0,0,0,0,0,0,0,0,0,0,0,0,3.7495,3.7495,3.7521,3.7521,3.7521,3.7536,3.7537,3.7537,3.7544,3.7544,3.7544,3.7544,3.7558,3.7559,3.7559,0,0,0,0,0,0,0,0,0,0,0,0,0,3.7508,3.7496,3.7521,3.7527,3.7527,3.7536,3.7537,3.7537,3.7544,3.7544,3.7544,3.7544,3.7558,3.7559,3.7559,3.7563,0,0,3.7561,3.7561,0,0,0,0,0,0,0,0,3.7507,3.7509,3.7526,3.7526,3.7527,3.7538,3.7533,3.7546,3.7544,3.7538,3.7544,3.7544,3.7552,3.7553,3.7556,3.7564,3.7564,3.7561,3.7561,3.7562,3.7562,0,0,0,0,0,0,0,3.7506,3.7508,3.7527,3.7526,3.7527,3.7528,3.753,3.7535,3.7544,3.7538,3.7539,3.754,3.7552,3.7555,3.7556,3.7565,3.7561,3.7562,3.7562,3.7562,3.7576,3.7576,0,0,0,0,0,0,3.7505,3.7507,3.7526,3.7527,3.7517,3.7528,3.753,3.7535,3.7544,3.7546,3.754,3.7541,3.7554,3.7555,3.7556,3.7561,3.7562,3.7562,3.7563,3.7576,3.7576,3.7576,0,0,0,0,0,0,3.7504,3.7506,3.7526,3.7518,3.752,3.7529,3.7533,3.7535,3.7538,3.7546,3.7548,3.7542,3.7554,3.7556,3.7561,3.7562,3.7562,3.7563,3.7576,3.7576,3.7576,3.7571,0,0,0,0,0,0,3.7503,3.7506,3.7508,3.7518,3.7521,3.7531,3.7534,3.7535,3.7539,3.754,3.7548,3.7549,3.7554,3.756,3.7562,3.7563,3.7563,3.7576,3.7576,3.7576,3.7571,3.7571,3.7571,0,0,0,0,0,3.7502,3.7506,3.7508,3.7511,3.7523,3.7531,3.7533,3.7538,3.7539,3.7541,3.7546,3.7549,3.7562,3.7561,3.7563,3.7564,3.7576,3.7576,3.7576,3.7571,3.7571,3.7571,0,0,0,0,0,0,3.7496,3.7507,3.751,3.7517,3.7523,3.7532,3.7535,3.7538,3.7544,3.7544,3.755,3.7552,3.7557,3.7561,3.756,3.7568,3.7569,3.7569,3.7565,3.7565,3.7564,3.7563,3.7564,0,0,0,0,0,3.7496,3.7501,3.7511,3.7516,3.7519,3.7526,3.753,3.7534,3.754,3.7542,3.7548,3.7554,3.7559,3.7562,3.7567,3.7572,3.7573,3.7573,3.7573,3.7573,3.7573,3.7575,3.7575,3.7576,3.7576,3.7576,0,0,3.7495,3.7501,3.7505,3.7515,3.752,3.7525,3.7528,3.7534,3.7537,3.7543,3.7549,3.7553,3.756,3.7565,3.7567,3.7568,3.7573,3.7573,3.7573,3.7573,3.7575,3.7575,3.7575,3.7576,3.7576,3.7576,0,0,3.7495,3.7501,3.7506,3.7511,3.7519,3.7524,3.7525,3.7533,3.7536,3.7542,3.7547,3.7551,3.756,3.7564,3.7567,3.7569,3.7571,3.757,3.7569,3.7571,3.7571,3.7571,3.7571,3.7571,3.757,3.757,3.757,0,3.7493,3.7502,3.7508,3.7513,3.7517,3.7523,3.7527,3.7531,3.754,3.7543,3.7544,3.7554,3.7559,3.7565,3.7565,3.7568,3.7569,3.7569,3.757,3.757,3.757,3.7571,3.7571,3.757,3.757,3.757,3.757,0,3.7498,3.7504,3.7506,3.7515,3.7519,3.7524,3.7531,3.7534,3.7537,3.7542,3.7547,3.7553,3.7559,3.7561,3.7564,3.7567,3.7567,3.7569,3.7571,3.757,3.757,3.757,3.757,3.757,3.757,3.757,0,0,3.7496,3.7507,3.7508,3.7512,3.7521,3.7525,3.753,3.7536,3.7539,3.7544,3.7548,3.7555,3.7556,3.756,3.7564,3.7566,3.7566,3.7567,3.7567,3.7567,3.7569,3.7567,3.7567,3.7568,3.7568,3.7568,3.7568,0,3.7497,3.7506,3.7512,3.7518,3.7523,3.7528,3.7532,3.7537,3.7541,3.7546,3.755,3.7555,3.7557,3.7559,3.7561,3.7565,3.7566,3.7565,3.757,3.7571,3.7569,3.7568,3.7566,3.7566,3.7568,3.7568,3.7568,0,3.7501,3.7506,3.7514,3.7521,3.7523,3.7527,3.7533,3.7537,3.7543,3.7546,3.7549,3.7553,3.7557,3.7558,3.7564,3.7563,3.7565,3.7568,3.7568,3.7568,3.757,3.7568,3.7567,3.7567,3.7569,3.7569,3.7569,0,3.7498,3.7507,3.7513,3.7516,3.7525,3.7527,3.7531,3.7537,3.754,3.7545,3.7547,3.7552,3.7555,3.7559,3.7563,3.7564,3.7568,3.757,3.757,3.757,3.7571,3.7571,3.757,3.7572,3.7572,3.7572,3.7572,0,3.7499,3.7503,3.7512,3.7515,3.7519,3.7525,3.7529,3.7533,3.7538,3.7542,3.7546,3.7549,3.7555,3.7559,3.7562,3.7566,3.7567,3.7569,3.757,3.7569,3.7569,3.7571,3.7571,3.7572,3.7572,3.7572,3.7572,0,3.7497,3.7503,3.7509,3.7517,3.7519,3.7522,3.7528,3.7531,3.7535,3.754,3.7541,3.7547,3.7552,3.7557,3.7563,3.7565,3.7568,3.757,3.7567,3.7567,3.7567,3.7567,3.7567,3.7567,3.757,3.757,3.757,0,3.7497,3.7501,3.7509,3.7512,3.7516,3.752,3.7524,3.7529,3.7532,3.7539,3.7541,3.7546,3.755,3.7557,3.7561,3.7566,3.7567,3.7567,3.7568,3.7566,3.7567,3.7567,3.7567,3.7567,3.7567,3.7567,3.7567,0,3.7497,3.75,3.7505,3.7511,3.7515,3.7519,3.7524,3.7526,3.7533,3.7536,3.7541,3.7544,3.755,3.7555,3.756,3.7563,3.7565,3.7566,3.7566,3.7565,3.7563,3.7564,3.7566,3.7566,3.7566,3.7566,3.7566,3.7566,3.7496,3.7499,3.7505,3.7511,3.7515,3.7519,3.7522,3.7526,3.7531,3.7536,3.7539,3.7544,3.7549,3.7556,3.7559,3.7562,3.7563,3.7564,3.7564,3.7564,3.7563,3.7563,3.7563,3.7563,3.7563,3.7563,3.7563,0,3.7496,3.75,3.7505,3.7512,3.7516,3.7518,3.7523,3.7526,3.753,3.7535,3.7539,3.7544,3.7548,3.7553,3.7558,3.7559,3.7561,3.756,3.756,3.7561,3.7562,3.7561,3.7559,3.7559,3.7559,3.7559,3.7559,3.7559,3.7497,3.7502,3.7505,3.7512,3.7515,3.752,3.7523,3.7527,3.753,3.7536,3.754,3.7543,3.7547,3.7552,3.7556,3.7557,3.7559,3.7558,3.7559,3.7561,3.7561,3.7561,3.756,3.7558,3.7558,3.7558,3.7558,3.7558]}]]